Weather History for Beaufort, SC

Change the Weather History Date:

Monday, October 15, 2012

  Actual Average (KNBC) Record (KNBC)
Temperature  
Mean Temperature 73 °F -  
Max Temperature 82 °F 78 °F 88 °F (1943)
Min Temperature 64 °F 59 °F 41 °F (1955)
Cooling Degree Days 8    
Growing Degree Days 23 (Base 50)    
Moisture  
Dew Point 65 °F    
Average Humidity 79    
Maximum Humidity 100    
Minimum Humidity 54    
Precipitation  
Precipitation 0.00 in - - ()
Sea Level Pressure  
Sea Level Pressure 29.90 in    
Wind  
Wind Speed 3 mph (WSW)    
Max Wind Speed 12 mph    
Max Gust Speed 17 mph    
Visibility 7 miles    
Events Rain , Thunderstorm    
Averages and records for this station are not official NWS values.
T = Trace of Precipitation, MM = Missing Value Source: NWS Daily Summary

Daily Weather History Graph

Daily Weather History Graph

Search for Another Location

Airport:

Trip Planner

Search our weather history database for the weather conditions in past years. The results will help you decide how hot, cold, wet, or windy it might be!

Date:

Astronomy

Oct. 15, 2012 Rise Set
Actual Time 7:26 AM EDT 6:49 PM EDT
Civil Twilight 7:01 AM EDT 7:13 PM EDT
Nautical Twilight 6:33 AM EDT 7:42 PM EDT
Astronomical Twilight 6:04 AM EDT 8:10 PM EDT
Moon 7:32 AM EDT (10/15) 6:52 PM EDT (10/15)
Length of Visible Light 12h 12m
Length of Day
11h 22m
Waxing Crescent, 0% of the Moon is Illuminated
Oct 15
Waxing Crescent
Oct 21
First Quarter
Oct 29
Full
Nov 6
Last Quarter
Nov 13
New

Hourly Weather History & Observations

Time (EDT) Temp. Heat Index Dew Point Humidity Pressure Visibility Wind Dir Wind Speed Gust Speed Precip Events Conditions
12:15 AM 68.0 °F - 64.4 °F 88% 30.04 in 7.0 mi Calm Calm - N/A   Clear
12:35 AM 66.2 °F - 64.4 °F 94% 30.03 in 7.0 mi Calm Calm - N/A   Clear
1:15 AM 66.2 °F - 64.4 °F 94% 30.02 in 7.0 mi Calm Calm - N/A   Clear
1:35 AM 66.2 °F - 64.4 °F 94% 30.01 in 5.0 mi SE 3.5 mph - N/A   Clear
1:55 AM 66.2 °F - 64.4 °F 94% 30.01 in 5.0 mi Calm Calm - N/A   Clear
2:15 AM 66.2 °F - 64.4 °F 94% 30.00 in 7.0 mi Calm Calm - N/A   Clear
2:35 AM 66.2 °F - 64.4 °F 94% 29.99 in 7.0 mi Calm Calm - N/A   Clear
2:55 AM 66.2 °F - 64.4 °F 94% 29.98 in 7.0 mi Calm Calm - N/A   Clear
3:15 AM 64.4 °F - 62.6 °F 94% 29.98 in 7.0 mi Calm Calm - N/A   Clear
3:35 AM 66.2 °F - 64.4 °F 94% 29.97 in 7.0 mi Calm Calm - N/A   Clear
3:55 AM 64.4 °F - 62.6 °F 94% 29.96 in 7.0 mi Calm Calm - N/A   Clear
4:15 AM 64.4 °F - 64.4 °F 100% 29.95 in 10.0 mi Calm Calm - N/A   Clear
4:35 AM 66.2 °F - 62.6 °F 88% 29.95 in 7.0 mi Calm Calm - N/A   Clear
4:55 AM 66.2 °F - 64.4 °F 94% 29.96 in 7.0 mi Calm Calm - N/A   Clear
5:15 AM 66.2 °F - 64.4 °F 94% 29.95 in 7.0 mi Calm Calm - N/A   Scattered Clouds
5:55 AM 66.2 °F - 64.4 °F 94% 29.95 in 7.0 mi Calm Calm - N/A   Mostly Cloudy
6:15 AM 66.2 °F - 64.4 °F 94% 29.95 in 7.0 mi Calm Calm - N/A   Scattered Clouds
6:35 AM 66.2 °F - 64.4 °F 94% 29.95 in 7.0 mi Calm Calm - N/A   Clear
6:55 AM 64.4 °F - 62.6 °F 94% 29.96 in 7.0 mi Calm Calm - N/A   Scattered Clouds
7:15 AM 64.4 °F - 64.4 °F 100% 29.95 in 7.0 mi Calm Calm - N/A   Scattered Clouds
7:35 AM 64.4 °F - 64.4 °F 100% 29.96 in 10.0 mi Calm Calm - N/A   Clear
7:55 AM 66.2 °F - 64.4 °F 94% 29.96 in 5.0 mi Calm Calm - N/A   Scattered Clouds
8:15 AM 68.0 °F - 64.4 °F 88% 29.96 in 7.0 mi Calm Calm - N/A   Mostly Cloudy
8:35 AM 69.8 °F - 68.0 °F 94% 29.96 in 5.0 mi Calm Calm - N/A   Overcast
8:55 AM 69.8 °F - 68.0 °F 94% 29.97 in 7.0 mi Calm Calm - N/A   Overcast
9:15 AM 71.6 °F - 68.0 °F 88% 29.97 in 5.0 mi Calm Calm - N/A   Overcast
9:35 AM 71.6 °F - 68.0 °F 88% 29.97 in 7.0 mi Calm Calm - N/A   Mostly Cloudy
9:55 AM 73.4 °F - 69.8 °F 88% 29.97 in 7.0 mi Calm Calm - N/A   Scattered Clouds
10:15 AM 75.2 °F - 69.8 °F 83% 29.97 in 7.0 mi Calm Calm - N/A   Mostly Cloudy
10:35 AM 77.0 °F - 68.0 °F 74% 29.96 in 7.0 mi SW 3.5 mph - N/A   Mostly Cloudy
10:55 AM 77.0 °F - 68.0 °F 74% 29.96 in 5.0 mi SW 6.9 mph - N/A   Haze
11:15 AM 78.8 °F - 68.0 °F 69% 29.95 in 7.0 mi SW 4.6 mph - N/A   Mostly Cloudy
11:35 AM 78.8 °F - 68.0 °F 69% 29.94 in 7.0 mi SW 9.2 mph - N/A   Mostly Cloudy
11:55 AM 78.8 °F - 68.0 °F 69% 29.93 in 5.0 mi SSW 8.1 mph - N/A   Haze
12:15 PM 78.8 °F - 68.0 °F 69% 29.92 in 5.0 mi SW 6.9 mph - N/A   Haze
12:35 PM 78.8 °F - 68.0 °F 69% 29.91 in 7.0 mi SW 6.9 mph - N/A   Mostly Cloudy
12:55 PM 78.8 °F - 68.0 °F 69% 29.89 in 7.0 mi SW 5.8 mph - N/A   Scattered Clouds
1:15 PM 80.6 °F 82.7 °F 66.2 °F 61% 29.88 in 7.0 mi SW 6.9 mph 17.3 mph N/A   Scattered Clouds
1:35 PM 80.6 °F 82.3 °F 64.4 °F 58% 29.87 in 7.0 mi WSW 10.4 mph - N/A   Scattered Clouds
1:55 PM 80.6 °F 82.3 °F 64.4 °F 58% 29.85 in 7.0 mi SW 11.5 mph - N/A   Clear
2:15 PM 80.6 °F 82.3 °F 64.4 °F 58% 29.84 in 7.0 mi SW 9.2 mph - N/A   Scattered Clouds
2:35 PM 80.6 °F 82.3 °F 64.4 °F 58% 29.83 in 7.0 mi SSW 8.1 mph - N/A   Scattered Clouds
2:55 PM 80.6 °F 82.7 °F 66.2 °F 61% 29.82 in 7.0 mi SW 6.9 mph - N/A   Mostly Cloudy
3:15 PM 80.6 °F 83.2 °F 68.0 °F 65% 29.81 in 7.0 mi SSW 8.1 mph - N/A Thunderstorm Mostly Cloudy
3:35 PM 80.6 °F 83.2 °F 68.0 °F 65% 29.81 in 5.0 mi SW 9.2 mph - N/A   Haze
3:55 PM 80.6 °F 83.2 °F 68.0 °F 65% 29.80 in 7.0 mi South 4.6 mph - N/A   Scattered Clouds
4:15 PM 82.4 °F 85.4 °F 68.0 °F 62% 29.80 in 7.0 mi WSW 9.2 mph - N/A   Clear
4:35 PM 82.4 °F 83.9 °F 64.4 °F 54% 29.80 in 7.0 mi WSW 9.2 mph - N/A   Scattered Clouds
4:55 PM 80.6 °F 82.7 °F 66.2 °F 61% 29.80 in 7.0 mi WSW 6.9 mph - N/A   Mostly Cloudy
5:15 PM 80.6 °F 83.2 °F 68.0 °F 65% 29.79 in 7.0 mi South 6.9 mph - N/A   Mostly Cloudy
5:35 PM 82.4 °F 83.9 °F 64.4 °F 54% 29.78 in 7.0 mi SW 6.9 mph - N/A   Scattered Clouds
5:55 PM 80.6 °F 81.8 °F 62.6 °F 54% 29.78 in 7.0 mi WSW 8.1 mph - N/A   Scattered Clouds
6:15 PM 80.6 °F 81.8 °F 62.6 °F 54% 29.79 in 7.0 mi West 8.1 mph - N/A   Mostly Cloudy
6:35 PM 78.8 °F - 64.4 °F 61% 29.79 in 5.0 mi WNW 5.8 mph - N/A   Haze
6:55 PM 77.0 °F - 64.4 °F 65% 29.79 in 7.0 mi WNW 5.8 mph - N/A   Mostly Cloudy
7:15 PM 77.0 °F - 64.4 °F 65% 29.79 in 10.0 mi West 4.6 mph - N/A   Mostly Cloudy
7:35 PM 77.0 °F - 64.4 °F 65% 29.80 in 7.0 mi WNW 3.5 mph - N/A   Overcast
7:55 PM 71.6 °F - 64.4 °F 78% 29.81 in 2.0 mi WSW 8.1 mph 15.0 mph N/A Rain Heavy Rain
8:15 PM 69.8 °F - 68.0 °F 94% 29.81 in 7.0 mi SW 6.9 mph - N/A   Overcast
8:35 PM 69.8 °F - 68.0 °F 94% 29.81 in 7.0 mi WSW 4.6 mph - N/A   Mostly Cloudy
8:55 PM 69.8 °F - 68.0 °F 94% 29.82 in 4.0 mi WSW 4.6 mph - N/A   Scattered Clouds
9:15 PM 69.8 °F - 68.0 °F 94% 29.82 in 7.0 mi WSW 5.8 mph - N/A   Clear
9:35 PM 69.8 °F - 68.0 °F 94% 29.83 in 7.0 mi West 4.6 mph - N/A   Clear
9:55 PM 69.8 °F - 68.0 °F 94% 29.83 in 7.0 mi Calm Calm - N/A   Clear
10:15 PM 69.8 °F - 68.0 °F 94% 29.84 in 7.0 mi WNW 3.5 mph - N/A   Clear
10:35 PM 69.8 °F - 66.2 °F 88% 29.84 in 7.0 mi WNW 11.5 mph - N/A   Clear
10:55 PM 69.8 °F - 57.2 °F 64% 29.85 in 7.0 mi NW 10.4 mph 17.3 mph N/A   Clear
11:15 PM 69.8 °F - 55.4 °F 60% 29.86 in 10.0 mi NW 10.4 mph - N/A   Clear
11:35 PM 68.0 °F - 55.4 °F 64% 29.86 in 10.0 mi NW 8.1 mph - N/A   Clear
11:55 PM 68.0 °F - 55.4 °F 64% 29.86 in 10.0 mi NW 8.1 mph - N/A   Clear